User: anonymous
Location: Wildlife_Club
(35.6000°N, 81.4330°W)
Time: 03:50:19
(UTC-04:00)
Language:

Cosmos 1782 - Orbit

View from above orbital plane
View from above orbital plane
View from above satellite
View from above satellite

Ground track
Ground track

The orbit data is extracted from the following two-line orbital elements,

1 16986U 86074A   14113.16131010  .00002881  00000-0  21430-3 0  7336
2 16986 082.5082 158.4960 0010459 311.1128 048.9194 15.02598558497717
Epoch (UTC): 23 April 2014 03:52:17
Eccentricity: 0.0010459
inclination: 82.5082°
perigee height: 551 km
apogee height: 566 km
right ascension of ascending node: 158.4960°
argument of perigee: 311.1128°
revolutions per day: 15.02598558
mean anomaly at epoch: 48.9194°
orbit number at epoch: 49771

The dashed part of the orbit path shows where the satellite is in the earth's shadow,  

DLR